[[{"header":{"parameterUnit":"m.s-1","parameterCategory":1,"la1":30.2991,"la2":30.254,"lo1":-89.0895,"lo2":-89.0444,"dy":0.0017,"dx":0.0017,"nx":28,"ny":28,"refTime":"2025-08-24T21:00:00:Z","depth":0,"parameterNumber":2,"parameterNumberName":"U-component_of_WINDS"},"data":[0,0,0,0,0,0,0,0,0,0,0,0,0,0,0,0,0,0,0,0,0,0,0,0,0,0,0,0,0,0,0,0,0,0,0,0,0,0,0,0,0,0,0,0,0,0,0,0,0,0,0,0,0,0,0,0,0,0,3.4561,3.4561,0,3.4635,3.4636,3.4636,3.4535,3.4532,3.4528,3.4525,3.4601,3.4606,3.4611,0,0,0,0,0,0,0,0,0,0,0,0,0,3.4332,3.4337,3.456,3.4561,3.4562,3.4635,3.4636,3.4637,3.4536,3.4532,3.4527,3.4523,3.4599,3.4605,3.4612,0,0,0,0,0,0,0,0,0,0,0,0,0,3.4421,3.4338,3.456,3.4521,3.4518,3.4634,3.4636,3.4637,3.4537,3.4532,3.4526,3.4521,3.4597,3.4605,3.4613,3.4771,0,0,3.4637,3.4641,0,0,0,0,0,0,0,0,3.4416,3.443,3.4526,3.4524,3.4521,3.457,3.4583,3.4682,3.4538,3.453,3.4525,3.4518,3.4595,3.4603,3.4629,3.4775,3.4778,3.4638,3.4643,3.4647,3.4649,0,0,0,0,0,0,0,3.441,3.4426,3.459,3.4527,3.4524,3.4499,3.4506,3.4601,3.4592,3.453,3.4523,3.4533,3.4593,3.4621,3.463,3.4779,3.4638,3.4645,3.465,3.4653,3.5057,3.5063,0,0,0,0,0,0,3.4409,3.4421,3.4587,3.4592,3.4454,3.4508,3.4515,3.456,3.4591,3.459,3.4538,3.4528,3.461,3.462,3.4632,3.4817,3.4647,3.4654,3.4659,3.5051,3.5058,3.5065,0,0,0,0,0,0,3.4404,3.4424,3.4584,3.4505,3.4523,3.4518,3.4568,3.4564,3.4592,3.4596,3.4594,3.4569,3.4606,3.4621,3.4737,3.4819,3.4658,3.4665,3.5044,3.5053,3.5062,3.5191,0,0,0,0,0,0,3.4398,3.4423,3.4484,3.4507,3.4528,3.4688,3.4574,3.457,3.4607,3.4595,3.4625,3.4624,3.4603,3.4725,3.4745,3.4827,3.4671,3.5037,3.5048,3.5059,3.518,3.5203,3.5224,0,0,0,0,0,3.439,3.4518,3.4487,3.4508,3.4603,3.4693,3.4705,3.4678,3.4614,3.4674,3.4676,3.4623,3.4808,3.4738,3.4759,3.4845,3.5031,3.5045,3.5058,3.517,3.5199,3.5223,0,0,0,0,0,0,3.4504,3.452,3.4486,3.4625,3.4659,3.4676,3.4751,3.471,3.4763,3.4749,3.4714,3.4721,3.4845,3.4857,3.478,3.4999,3.4909,3.4927,3.4986,3.5014,3.5036,3.5029,3.4678,0,0,0,0,0,3.4545,3.4617,3.4627,3.4749,3.4767,3.4757,3.4795,3.4771,3.4805,3.4818,3.4829,3.4864,3.4929,3.4973,3.5033,3.5182,3.5186,3.5251,3.5273,3.5292,3.5307,3.5384,3.5413,3.5108,3.5108,3.5108,0,0,3.4631,3.4649,3.4696,3.4772,3.4795,3.487,3.4769,3.4853,3.4908,3.4831,3.494,3.4951,3.4986,3.5119,3.5178,3.5133,3.5392,3.5308,3.5323,3.5328,3.5401,3.543,3.5455,3.5117,3.5115,3.5114,0,0,3.4825,3.4846,3.4949,3.4974,3.5011,3.5003,3.5028,3.5052,3.5055,3.5165,3.5108,3.5173,3.5287,3.5314,3.5343,3.5549,3.5501,3.557,3.5684,3.576,3.5784,3.5805,3.5876,3.5902,3.5585,3.5586,3.5586,0,3.4926,3.5037,3.5007,3.5094,3.5129,3.5063,3.5166,3.5192,3.5247,3.5272,3.5221,3.5362,3.5382,3.5519,3.5569,3.5595,3.5621,3.5564,3.5783,3.5804,3.5823,3.589,3.5917,3.5593,3.5593,3.5592,3.5591,0,3.5159,3.5237,3.5315,3.5369,3.5413,3.5508,3.5492,3.554,3.5513,3.5511,3.5623,3.5645,3.5707,3.5739,3.5714,3.5873,3.5843,3.5789,3.5696,3.5861,3.5923,3.5949,3.5605,3.5602,3.56,3.5598,0,0,3.5424,3.5461,3.549,3.5513,3.5549,3.5608,3.57,3.5762,3.5802,3.5843,3.5918,3.6017,3.5966,3.5999,3.5976,3.6044,3.6202,3.598,3.5981,3.6019,3.6376,3.6415,3.6445,3.6172,3.6177,3.6181,3.6372,0,3.5616,3.5774,3.575,3.5903,3.5974,3.5913,3.5993,3.6023,3.6024,3.6084,3.6085,3.6154,3.6083,3.6102,3.6167,3.6169,3.6273,3.6156,3.624,3.6244,3.623,3.6478,3.652,3.6699,3.6397,3.6401,3.6404,0,3.586,3.5909,3.6069,3.6092,3.6121,3.6194,3.6247,3.6306,3.6339,3.6335,3.6372,3.6338,3.6429,3.6338,3.6462,3.6383,3.6417,3.6424,3.643,3.6434,3.6332,3.6487,3.6756,3.6782,3.6442,3.6439,3.6437,0,3.6034,3.614,3.6249,3.6271,3.6302,3.6354,3.637,3.6398,3.6436,3.6484,3.6508,3.6566,3.6597,3.6643,3.6625,3.656,3.6753,3.666,3.675,3.6751,3.6791,3.6788,3.7066,3.6818,3.6817,3.6817,3.6816,0,3.6249,3.6349,3.6327,3.6394,3.6504,3.6476,3.6585,3.6593,3.6619,3.6685,3.6638,3.6701,3.6675,3.6737,3.6723,3.6827,3.6843,3.6841,3.6835,3.6843,3.6843,3.6863,3.6849,3.6824,3.6822,3.6821,3.682,0,3.6461,3.6451,3.6565,3.6586,3.6593,3.6673,3.669,3.6752,3.675,3.6835,3.6853,3.6849,3.692,3.6907,3.6985,3.6976,3.7105,3.7086,3.7094,3.7088,3.7178,3.7169,3.7476,3.7514,3.7244,3.7247,3.7249,0,3.6597,3.6672,3.6701,3.6742,3.6761,3.6829,3.6867,3.6843,3.6885,3.6929,3.6985,3.7052,3.7103,3.7218,3.7222,3.7281,3.7261,3.7365,3.727,3.7275,3.726,3.7254,3.7261,3.7383,3.7386,3.7389,3.7391,0,3.6839,3.6831,3.6888,3.6945,3.6992,3.7035,3.7073,3.711,3.7089,3.7139,3.721,3.725,3.7329,3.7395,3.745,3.7466,3.7425,3.7421,3.7445,3.7452,3.7452,3.7451,3.7142,3.7414,3.7411,3.741,3.7408,3.7408,3.7016,3.7079,3.7108,3.7174,3.72,3.7237,3.7296,3.7301,3.736,3.7422,3.7405,3.7486,3.7517,3.7586,3.7608,3.7671,3.7632,3.7667,3.7675,3.7683,3.7693,3.7445,3.7681,3.768,3.768,3.7679,3.7679,0,3.7253,3.7269,3.733,3.7385,3.7436,3.7394,3.7434,3.748,3.7551,3.7584,3.7635,3.7717,3.7781,3.779,3.785,3.7898,3.7881,3.7914,3.7909,3.7913,3.7725,3.7698,3.7927,3.7927,3.7927,3.7927,3.7927,3.7927,3.7382,3.7486,3.7481,3.7598,3.7613,3.7691,3.7718,3.7751,3.7777,3.787,3.7923,3.7928,3.7951,3.8013,3.8069,3.807,3.8093,3.8134,3.8128,3.7951,3.7926,3.7903,3.7876,3.814,3.814,3.8309,3.8311,3.8312]},{"header":{"parameterUnit":"m.s-1","parameterCategory":1,"la1":30.2991,"la2":30.254,"lo1":-89.0895,"lo2":-89.0444,"dy":0.0017,"dx":0.0017,"nx":28,"ny":28,"refTime":"2025-08-24T21:00:00:Z","depth":0,"parameterNumber":3,"parameterNumberName":"V-component_of_WINDS"},"data":[0,0,0,0,0,0,0,0,0,0,0,0,0,0,0,0,0,0,0,0,0,0,0,0,0,0,0,0,0,0,0,0,0,0,0,0,0,0,0,0,0,0,0,0,0,0,0,0,0,0,0,0,0,0,0,0,0,0,-0.3472,-0.3472,0,-0.3459,-0.3459,-0.3459,-0.3474,-0.3475,-0.3475,-0.3476,-0.346,-0.3459,-0.3458,0,0,0,0,0,0,0,0,0,0,0,0,0,-0.3507,-0.3506,-0.3472,-0.3472,-0.3472,-0.3459,-0.3459,-0.3459,-0.3474,-0.3475,-0.3476,-0.3476,-0.3461,-0.3459,-0.3458,0,0,0,0,0,0,0,0,0,0,0,0,0,-0.3493,-0.3506,-0.3472,-0.3478,-0.3478,-0.3459,-0.3459,-0.3459,-0.3474,-0.3475,-0.3476,-0.3477,-0.3461,-0.346,-0.3458,-0.3432,0,0,-0.3454,-0.3453,0,0,0,0,0,0,0,0,-0.3494,-0.3491,-0.3477,-0.3477,-0.3478,-0.3469,-0.3466,-0.345,-0.3474,-0.3476,-0.3476,-0.3477,-0.3462,-0.3461,-0.3457,-0.3431,-0.3431,-0.3454,-0.3453,-0.3452,-0.3452,0,0,0,0,0,0,0,-0.3494,-0.3492,-0.3467,-0.3477,-0.3477,-0.348,-0.3479,-0.3463,-0.3464,-0.3475,-0.3477,-0.3475,-0.3463,-0.3458,-0.3456,-0.343,-0.3454,-0.3452,-0.3452,-0.3451,-0.3383,-0.3382,0,0,0,0,0,0,-0.3495,-0.3493,-0.3467,-0.3466,-0.3488,-0.3479,-0.3478,-0.3471,-0.3464,-0.3464,-0.3474,-0.3476,-0.346,-0.3458,-0.3456,-0.3425,-0.3452,-0.3451,-0.345,-0.3384,-0.3383,-0.3382,0,0,0,0,0,0,-0.3496,-0.3493,-0.3468,-0.348,-0.3477,-0.3478,-0.347,-0.347,-0.3466,-0.3464,-0.3464,-0.3469,-0.3461,-0.3458,-0.3438,-0.3425,-0.345,-0.3449,-0.3385,-0.3384,-0.3383,-0.3363,0,0,0,0,0,0,-0.3497,-0.3493,-0.3483,-0.348,-0.3476,-0.3451,-0.3469,-0.347,-0.3463,-0.3465,-0.3459,-0.3459,-0.3461,-0.344,-0.3437,-0.3423,-0.3448,-0.3387,-0.3385,-0.3383,-0.3365,-0.3361,-0.3358,0,0,0,0,0,-0.3498,-0.3478,-0.3483,-0.348,-0.3465,-0.345,-0.3448,-0.3452,-0.3462,-0.3452,-0.3451,-0.3459,-0.3427,-0.3438,-0.3434,-0.342,-0.3387,-0.3385,-0.3383,-0.3366,-0.3362,-0.3358,0,0,0,0,0,0,-0.3478,-0.3477,-0.3483,-0.3461,-0.3456,-0.3453,-0.344,-0.3447,-0.3438,-0.344,-0.3444,-0.3443,-0.3422,-0.3419,-0.3431,-0.3395,-0.3409,-0.3406,-0.3397,-0.3393,-0.3389,-0.339,-0.3447,0,0,0,0,0,-0.3472,-0.3461,-0.346,-0.3441,-0.3438,-0.3439,-0.3433,-0.3437,-0.3431,-0.3429,-0.3426,-0.3419,-0.3408,-0.34,-0.339,-0.3365,-0.3363,-0.3353,-0.3349,-0.3347,-0.3344,-0.3331,-0.3326,-0.3375,-0.3375,-0.3375,0,0,-0.3457,-0.3455,-0.3448,-0.3437,-0.3433,-0.3421,-0.3437,-0.3424,-0.3415,-0.3426,-0.3408,-0.3406,-0.3399,-0.3376,-0.3366,-0.3373,-0.333,-0.3344,-0.3342,-0.334,-0.3328,-0.3323,-0.3319,-0.3374,-0.3374,-0.3374,0,0,-0.3425,-0.3423,-0.3407,-0.3403,-0.3398,-0.3399,-0.3395,-0.3391,-0.3391,-0.3373,-0.3381,-0.337,-0.335,-0.3345,-0.334,-0.3307,-0.3313,-0.3303,-0.3285,-0.3272,-0.3268,-0.3264,-0.3253,-0.3248,-0.33,-0.33,-0.33,0,-0.3408,-0.3391,-0.3397,-0.3383,-0.3378,-0.3389,-0.3373,-0.3368,-0.3359,-0.3355,-0.3363,-0.3339,-0.3335,-0.3312,-0.3304,-0.3299,-0.3295,-0.3303,-0.3268,-0.3265,-0.3262,-0.325,-0.3246,-0.3299,-0.3299,-0.3299,-0.3299,0,-0.337,-0.3358,-0.3345,-0.3338,-0.3331,-0.3316,-0.3319,-0.3311,-0.3316,-0.3316,-0.3297,-0.3293,-0.3282,-0.3277,-0.3281,-0.3254,-0.3259,-0.3268,-0.3282,-0.3256,-0.3245,-0.3241,-0.3297,-0.3298,-0.3298,-0.3298,0,0,-0.3324,-0.3321,-0.3316,-0.3313,-0.3309,-0.3299,-0.3284,-0.3275,-0.3268,-0.3261,-0.3249,-0.3232,-0.3241,-0.3235,-0.3238,-0.3227,-0.3201,-0.3237,-0.3237,-0.323,-0.3171,-0.3165,-0.316,-0.3205,-0.3205,-0.3204,-0.3172,0,-0.3292,-0.3268,-0.3273,-0.3249,-0.3238,-0.3249,-0.3236,-0.3231,-0.3231,-0.3221,-0.3221,-0.321,-0.3221,-0.3218,-0.3207,-0.3206,-0.3189,-0.3209,-0.3193,-0.3193,-0.3194,-0.3154,-0.3147,-0.3117,-0.3168,-0.3167,-0.3167,0,-0.3251,-0.3245,-0.3219,-0.3217,-0.3213,-0.3201,-0.3193,-0.3184,-0.3179,-0.3179,-0.3173,-0.3179,-0.3164,-0.3179,-0.3158,-0.3171,-0.3165,-0.3164,-0.3163,-0.3161,-0.3178,-0.3151,-0.3108,-0.3103,-0.316,-0.3161,-0.3161,0,-0.3221,-0.3205,-0.3188,-0.3185,-0.3182,-0.3174,-0.3172,-0.3168,-0.3162,-0.3154,-0.3151,-0.3141,-0.3136,-0.3128,-0.3131,-0.3141,-0.3109,-0.3124,-0.3109,-0.3109,-0.3101,-0.3102,-0.3056,-0.3098,-0.3098,-0.3098,-0.3098,0,-0.3184,-0.3168,-0.3175,-0.3164,-0.3147,-0.3153,-0.3135,-0.3134,-0.3131,-0.312,-0.3129,-0.3118,-0.3123,-0.3112,-0.3114,-0.3097,-0.3094,-0.3094,-0.3095,-0.3093,-0.3093,-0.3089,-0.3091,-0.3097,-0.3097,-0.3097,-0.3098,0,-0.3146,-0.315,-0.3133,-0.3132,-0.3131,-0.3118,-0.3117,-0.3107,-0.3108,-0.3094,-0.3091,-0.3093,-0.3081,-0.3084,-0.307,-0.3072,-0.305,-0.3053,-0.3052,-0.3052,-0.3037,-0.3038,-0.2986,-0.298,-0.3026,-0.3026,-0.3026,0,-0.3123,-0.3111,-0.3109,-0.3103,-0.3101,-0.3091,-0.3085,-0.3091,-0.3084,-0.3078,-0.3069,-0.3058,-0.305,-0.3031,-0.303,-0.302,-0.3023,-0.3006,-0.3022,-0.3021,-0.3023,-0.3024,-0.3022,-0.3003,-0.3002,-0.3002,-0.3001,0,-0.308,-0.3083,-0.3075,-0.3068,-0.3061,-0.3055,-0.305,-0.3044,-0.3049,-0.3042,-0.303,-0.3024,-0.3011,-0.3001,-0.2992,-0.2989,-0.2996,-0.2996,-0.2992,-0.299,-0.299,-0.299,-0.3043,-0.2997,-0.2998,-0.2998,-0.2998,-0.2998,-0.3049,-0.3039,-0.3037,-0.3027,-0.3024,-0.302,-0.301,-0.3011,-0.3002,-0.2993,-0.2997,-0.2984,-0.2979,-0.2968,-0.2964,-0.2954,-0.296,-0.2955,-0.2953,-0.2951,-0.295,-0.2992,-0.2952,-0.2953,-0.2953,-0.2953,-0.2953,0,-0.3007,-0.3006,-0.2998,-0.2991,-0.2983,-0.2992,-0.2987,-0.298,-0.2969,-0.2964,-0.2957,-0.2944,-0.2934,-0.2933,-0.2923,-0.2915,-0.2918,-0.2912,-0.2913,-0.2912,-0.2944,-0.2949,-0.291,-0.291,-0.291,-0.291,-0.291,-0.291,-0.2984,-0.2968,-0.2971,-0.2953,-0.2952,-0.2941,-0.2937,-0.2932,-0.2929,-0.2915,-0.2907,-0.2907,-0.2904,-0.2894,-0.2885,-0.2885,-0.2881,-0.2874,-0.2875,-0.2905,-0.2909,-0.2914,-0.2918,-0.2873,-0.2873,-0.2843,-0.2843,-0.2843]}]]